Skip Page Navigation
NASA JPL Caltech
NASA Logo - Jet Propulsion Laboratory + View the NASA Portal
+ Center for Near-Earth Object Studies
JPL Home Earth Solar System Stars & Galaxies Technology
JPL Solar System Dynamics
BODIES ORBITS EPHEMERIDES TOOLS PHYSICAL DATA DISCOVERY FAQ SITE MAP
JPL Small-Body Database Browser
Search: [ help ]  
86707 (2000 GJ)
Classification: Main-belt Asteroid          SPK-ID: 2086707
Ephemeris | Orbit Diagram | Orbital Elements | Mission Design | Physical Parameters | Discovery Circumstances | Close-Approach Data ]

[ show orbit diagram ]
Orbital Elements at Epoch 2459000.5 (2020-May-31.0) TDB
Reference: JPL 20 (heliocentric ecliptic J2000)
 Element Value Uncertainty (1-sigma)   Units 
e .2061241137951365 3.5217e-08  
a 2.349245645798214 1.0551e-08 au
q 1.865009468970974 8.2649e-08 au
i 2.029080611016745 6.6842e-06 deg
node 182.248721675669 0.00010946 deg
peri 103.3438136223813 0.0001107 deg
M 154.7350902457258 1.6379e-05 deg
tp 2458435.202083847895
(2018-Nov-12.70208385)
5.8855e-05 TDB
period 1315.197797032203
3.60
8.8603e-06
2.426e-08
d
yr
n .2737230862250185 1.844e-09 deg/d
Q 2.833481822625455 1.2726e-08 au
  Orbit Determination Parameters
   # obs. used (total)      537  
   data-arc span      8074 days (22.11 yr)  
   first obs. used      1997-09-30  
   last obs. used      2019-11-08  
   planetary ephem.      DE431  
   SB-pert. ephem.      SB431-N16  
   condition code      0  
   norm. resid. RMS      .60761  
   source      ORB  
   producer      Otto Matic  
   solution date      2019-Dec-04 08:23:46  

Additional Information
 Earth MOID = .849905 au 
 Jupiter MOID = 2.33071 au 
 T_jup = 3.529 
[ hide covariance matrix ]
Orbital Elements at Epoch 2456714.5 (2014-Feb-26.0) TDB
Reference: JPL 20 (heliocentric ecliptic J2000)
 Element Value Uncertainty (1-sigma)   Units 
e .2060395924042579 3.5173e-08  
q 1.864928453432084 8.2499e-08 au
tp 2457121.072703734203
(2015-Apr-08.57270373)
5.7662e-05 TDB
node 182.2671544146721 0.00010945 deg
peri 103.4560879774398 0.00011069 deg
i 2.028862104509941 6.6863e-06 deg
  Orbit Determination Parameters
   # obs. used (total)      537  
   data-arc span      8074 days (22.11 yr)  
   first obs. used      1997-09-30  
   last obs. used      2019-11-08  
   planetary ephem.      DE431  
   SB-pert. ephem.      SB431-N16  
   condition code      0  
   norm. resid. RMS      .60761  
   source      ORB  
   producer      Otto Matic  
   solution date      2019-Dec-04 08:23:46  

Additional Information
 Jupiter MOID = 2.33071 au 
 T_jup = 3.529 
Orbit Covariance (6×6)
  e q tp node peri i
e 1.237120291714501E-15 -2.886702706574893E-15 5.346605520603237E-13 -1.481058806556617E-15 1.323831533880628E-13 -4.501058283565607E-16
q -2.886702706574893E-15 6.806087808865241E-15 -1.225663868475855E-12 3.350390457950692E-15 -3.106188034099628E-13 1.257258047719119E-15
tp 5.346605520603237E-13 -1.225663868475855E-12 3.324957345603871E-9 -1.128547066399243E-11 9.618251324125612E-10 -1.891534888994473E-12
node -1.481058806556617E-15 3.350390457950692E-15 -1.128547066399243E-11 1.197830558205962E-8 -1.19730289938499E-8 6.025854881861709E-11
peri 1.323831533880628E-13 -3.106188034099628E-13 9.618251324125612E-10 -1.19730289938499E-8 1.225254378876917E-8 -6.073268746710797E-11
i -4.501058283565607E-16 1.257258047719119E-15 -1.891534888994473E-12 6.025854881861709E-11 -6.073268746710797E-11 4.470609923009091E-11

Ephemeris | Orbit Diagram | Orbital Elements | Mission Design | Physical Parameters | Discovery Circumstances | Close-Approach Data ]

Physical Parameter Table
Parameter Symbol Value Units Sigma Reference Notes
absolute magnitude H 16.6   n/a MPO436382  

86707 (2000 GJ)          Discovered 2000-Apr-02 by Comba, P. G. at Prescott
Reference: 20040830/Numbers.arcLast Updated: 2004-09-06

[ show close-approach data ]
Alternate Designations
 2000 GJ = 1997 SR29 
Ephemeris | Orbit Diagram | Orbital Elements | Mission Design | Physical Parameters | Discovery Circumstances | Close-Approach Data ]
ABOUT SSD CREDITS/AWARDS PRIVACY/COPYRIGHT GLOSSARY LINKS
FirstGov 2020-Oct-27 15:30 UT
(server date/time)  
NASA Home Page
Site Manager:   Ryan S. Park
Webmaster  Alan B. Chamberlin